Location: Buckeye Ditch
(40.9104°N, 122.9517°W)
Time: 22:05:30
(UTC+00:00)

Transit 2A - Pass Details

Date: 21 May 2025
Orbit: 599 x 947 km, 66.7° (Epoch: 20 June)

Event Time Altitude Azimuth Distance (km) Brightness Sun altitude
Rises 23:21:56 0° 333° (NNW) 2,888 9.1 44.3°
Reaches altitude 10° 23:24:09 10° 336° (NNW) 2,006 8.4 43.9°
Maximum altitude 23:28:37 66° 59° (ENE) 719 6.3 43.1°
Drops below altitude 10° 23:33:27 10° 142° (SE) 2,160 8.2 42.2°
Sets 23:35:55 0° 145° (SE) 3,132 9.0 41.7°
